Tracking 18840 objects as of 17-November-2017
HD Live streaming from Space Station
objects crossing your sky now

FENGYUN 1C DEB

Track FENGYUN 1C DEB now!
10-day predictions


NORAD ID: 31739
Int'l Code: 1999-025CEN
Perigee: 746.3 km
Apogee: 932.0 km
Inclination: 99.0 °
Period: 101.5 minutes
Semi major axis: 7210 km
RCS: 0.0135 m2 (small)
Launch date: May 10, 1999
Source: People's Republic of China (PRC)
Launch site: Taiyaun Space Center, China (TSC)

Note: This is SATELLITE DEBRIS
aabbcc
Your satellite tracking list
Your tracking list is empty




NASA's NSSDC Master Catalog

Two Line Element Set (TLE):
1 31739U 99025CEN 17320.81284815 +.00000026 +00000-0 +32632-4 0  9996
2 31739 099.0255 313.3388 0128781 213.6231 269.3569 14.18024772536975
Source of the keplerian elements: AFSPC